WA7BMK Weather Reports


Display with metric or nautical units.
time (UTC)temp
F
wind
direction
speed
MPH
gust
MPH
rain 1hr
in
rain 24hr
in
rain mn
in
humidity
%
barometer
mb
20260905211545 68 87 1.0 4.0 0.00 0.00 0.00 58 1017.7
20260905210056 66 0 0.0 4.0 0.00 0.00 0.00 64 1017.7
20260905204538 64 151 2.0 6.0 0.00 0.00 0.00 66 1017.9
20260905203043 63 360 1.0 6.0 0.00 0.00 0.00 70 1018.2
20260905201540 62 112 2.0 6.0 0.00 0.00 0.00 73 1018.2
20260905200057 62 0 2.0 5.0 0.00 0.00 0.00 72 1018.1
20260905194538 62 144 1.0 4.0 0.00 0.00 0.00 73 1018.2
20260905193039 61 0 1.0 3.0 0.00 0.00 0.00 75 1018.4
20260905191542 61 0 0.0 0.0 0.00 0.00 0.00 76 1018.4
20260905190038 60 360 0.0 4.0 0.00 0.00 0.00 76 1018.5
20260905184545 60 0 0.0 2.0 0.00 0.00 0.00 76 1018.7
20260905183040 60 112 1.0 3.0 0.00 0.00 0.00 77 1018.7
20260905181539 60 0 1.0 6.0 0.00 0.00 0.00 78 1018.8
20260905180044 60 104 2.0 7.0 0.00 0.00 0.00 78 1018.8
20260905174541 59 178 2.0 5.0 0.00 0.00 0.00 77 1018.7
20260905173039 59 0 0.0 2.0 0.00 0.00 0.00 79 1018.7
20260905171554 60 0 1.0 4.0 0.00 0.00 0.00 78 1018.5
20260905170039 59 0 0.0 0.0 0.00 0.00 0.00 81 1018.5
20260905164541 57 0 0.0 0.0 0.00 0.00 0.00 85 1018.6
20260905163041 55 0 0.0 0.0 0.00 0.00 0.00 87 1018.5
20260905161544 54 0 0.0 1.0 0.00 0.00 0.00 90 1018.4
20260905160048 52 0 1.0 3.0 0.00 0.00 0.00 92 1018.3
20260905154553 52 0 0.0 0.0 0.00 0.00 0.00 93 1018.1
20260905153045 51 0 0.0 0.0 0.00 0.00 0.00 94 1018.1
20260905151545 50 0 0.0 0.0 0.00 0.00 0.00 94 1018.1
20260905150040 50 0 0.0 0.0 0.00 0.00 0.00 93 1018.1
20260905144552 49 0 0.0 0.0 0.00 0.00 0.00 93 1018.1
20260905143044 49 0 0.0 0.0 0.00 0.00 0.00 93 1018.0
20260905141543 49 0 0.0 0.0 0.00 0.00 0.00 93 1018.1
20260905140044 49 0 0.0 0.0 0.00 0.00 0.00 93 1018.0
20260905134551 49 0 0.0 0.0 0.00 0.01 0.00 93 1017.7
20260905133043 48 0 0.0 0.0 0.00 0.01 0.00 93 1017.6
20260905131542 48 0 0.0 0.0 0.00 0.01 0.00 93 1017.5
20260905130042 48 0 0.0 0.0 0.00 0.01 0.00 93 1017.6
20260905124549 49 0 0.0 0.0 0.00 0.01 0.00 93 1017.5
20260905123046 48 0 0.0 0.0 0.00 0.01 0.00 93 1017.4
20260905121542 48 0 0.0 0.0 0.00 0.01 0.00 93 1017.5
20260905120043 48 0 0.0 0.0 0.00 0.01 0.00 93 1017.6
20260905114559 48 0 0.0 0.0 0.00 0.01 0.00 93 1017.6
20260905113040 47 0 0.0 0.0 0.00 0.01 0.00 93 1017.4
20260905111544 47 0 0.0 0.0 0.00 0.01 0.00 92 1017.4
20260905110042 47 0 0.0 0.0 0.00 0.01 0.00 92 1017.2
20260905104547 47 0 0.0 0.0 0.00 0.01 0.00 92 1017.1
20260905103042 48 0 0.0 0.0 0.00 0.01 0.00 92 1017.1
20260905101541 48 0 0.0 0.0 0.00 0.01 0.00 91 1016.9
20260905100039 48 0 0.0 0.0 0.00 0.01 0.00 91 1017.0
20260905094547 48 0 0.0 0.0 0.00 0.02 0.00 91 1017.0
20260905093043 49 0 0.0 0.0 0.00 0.02 0.00 91 1017.1
20260905091542 49 0 0.0 0.0 0.00 0.02 0.00 91 1017.1
20260905090039 49 0 0.0 0.0 0.00 0.02 0.00 91 1017.0
20260905084545 49 0 0.0 0.0 0.00 0.02 0.00 91 1016.9
20260905083040 50 0 0.0 0.0 0.00 0.02 0.00 90 1016.9
20260905081539 50 0 0.0 0.0 0.00 0.02 0.00 90 1017.0
20260905080051 50 0 0.0 0.0 0.00 0.02 0.00 90 1017.0
20260905074538 50 0 0.0 0.0 0.00 0.03 0.00 89 1016.9
20260905073045 50 0 0.0 0.0 0.00 0.03 0.00 89 1016.9
20260905071554 51 0 0.0 0.0 0.00 0.03 0.00 89 1016.5
20260905070048 51 0 0.0 0.0 0.00 0.03 0.00 88 1016.4
20260905064549 52 0 0.0 0.0 0.00 0.04 0.03 88 1016.4
20260905063040 52 0 0.0 0.0 0.00 0.04 0.03 87 1016.3
20260905061604 53 0 0.0 0.0 0.00 0.04 0.03 88 1016.2
20260905060044 53 0 0.0 0.0 0.00 0.04 0.03 87 1016.2
20260905054543 53 0 0.0 0.0 0.00 0.04 0.03 87 1016.2
20260905053042 53 0 0.0 0.0 0.00 0.04 0.03 86 1016.1
20260905051544 54 0 0.0 0.0 0.00 0.04 0.03 85 1016.1
20260905050038 54 0 0.0 0.0 0.00 0.04 0.03 84 1016.2
20260905044546 55 0 0.0 0.0 0.00 0.04 0.03 83 1016.2
20260905043107 55 0 0.0 0.0 0.00 0.04 0.03 83 1016.1
20260905041541 56 0 0.0 0.0 0.00 0.04 0.03 81 1016.1
20260905040105 57 0 0.0 0.0 0.00 0.04 0.03 79 1016.1
20260905034543 57 0 0.0 0.0 0.00 0.06 0.03 78 1016.1
20260905033042 58 0 0.0 1.0 0.00 0.06 0.03 76 1016.1
20260905031544 59 0 0.0 0.0 0.00 0.06 0.03 74 1015.8
20260905030044 60 0 0.0 0.0 0.00 0.06 0.03 73 1015.5
20260905024539 61 0 0.0 0.0 0.00 0.19 0.03 71 1015.5
20260905023050 62 0 0.0 0.0 0.00 0.19 0.03 71 1015.7
20260905021548 63 0 0.0 3.0 0.00 0.19 0.03 68 1015.6
20260905020044 64 360 0.0 2.0 0.00 0.19 0.03 65 1015.6
20260905014543 64 360 2.0 6.0 0.00 0.23 0.03 63 1015.4
20260905013044 65 149 2.0 6.0 0.00 0.23 0.03 63 1015.2
20260905011540 65 107 2.0 7.0 0.00 0.23 0.03 63 1015.0
20260905010049 64 42 2.0 8.0 0.00 0.23 0.03 66 1014.7
20260905004543 63 109 2.0 10.0 0.00 0.23 0.03 69 1014.7
20260905003040 63 117 4.0 11.0 0.00 0.23 0.03 68 1014.7
20260905001539 63 360 3.0 11.0 0.00 0.23 0.03 69 1015.0
20260905000041 65 360 3.0 12.0 0.00 0.23 0.03 62 1014.8
20260904234546 68 147 8.0 15.0 0.00 0.23 0.03 59 1014.6
20260904233039 71 88 3.0 7.0 0.00 0.23 0.03 56 1014.3
20260904231542 68 273 2.0 5.0 0.00 0.23 0.03 55 1014.2
20260904230044 69 327 0.0 4.0 0.00 0.23 0.03 59 1014.2
20260904224544 68 300 0.0 3.0 0.00 0.23 0.03 61 1014.2
20260904223040 66 200 1.0 3.0 0.00 0.23 0.03 62 1014.1
20260904221540 66 0 1.0 3.0 0.00 0.23 0.03 64 1014.2
20260904220106 66 173 1.0 4.0 0.00 0.23 0.03 61 1014.1
20260904214542 66 0 1.0 4.0 0.00 0.23 0.03 66 1013.9
20260904213040 65 0 0.0 2.0 0.00 0.23 0.03 70 1013.8